Location: Bednik
(45.3500°N, 16.3833°E)
Time: 17:37:51
(UTC+00:00)

CENTAUR R/B - Pass Details

Date: 08 August 2020
Orbit: 756 x 1432 km, 63.4° (Epoch: 19 September)

Event Time Altitude Azimuth Distance (km) Brightness Sun altitude
Exits shadow 21:04:50 43° 190° (S) 1,286 2.8 -23.5°
Maximum altitude 21:06:51 69° 122° (ESE) 1,036 2.4 -23.7°
Drops below altitude 10° 21:13:44 10° 41° (NE) 2,971 5.2 -24.3°
Sets 21:16:40 0° 40° (NE) 4,040 6.0 -24.5°
